DW7161 Weather Reports


Display with metric or nautical units.
time (UTC)temp
F
wind
direction
speed
MPH
gust
MPH
rain 1hr
in
rain 24hr
in
rain mn
in
humidity
%
barometer
mb
20190218010044 76 165 2.0 0.0 0.00 0.00 0.00 85 1016.2
20190218004517 76 169 2.0 0.0 0.00 0.00 0.00 85 1016.0
20190218003046 76 173 2.0 0.0 0.00 0.00 0.00 85 1015.8
20190218001514 77 172 3.0 0.0 0.00 0.00 0.00 84 1015.7
20190218000051 77 172 4.0 0.0 0.00 0.00 0.00 83 1015.5
20190217234517 77 180 5.0 0.0 0.00 0.00 0.00 82 1015.3
20190217233014 78 156 5.0 0.0 0.00 0.00 0.00 82 1015.2
20190217231509 78 159 5.0 0.0 0.00 0.00 0.00 81 1015.1
20190217230007 79 144 6.0 0.0 0.00 0.00 0.00 79 1015.0
20190217224517 79 176 6.0 0.0 0.00 0.00 0.00 76 1014.9
20190217223015 80 169 6.0 0.0 0.00 0.00 0.00 75 1014.7
20190217221544 80 161 7.0 0.0 0.00 0.00 0.00 74 1014.7
20190217220014 80 175 7.0 0.0 0.00 0.00 0.00 73 1014.6
20190217214507 80 172 7.0 0.0 0.00 0.00 0.00 73 1014.5
20190217213004 81 173 5.0 0.0 0.00 0.00 0.00 72 1014.4
20190217211514 82 171 4.0 0.0 0.00 0.00 0.00 70 1014.3
20190217210012 82 188 4.0 0.0 0.00 0.00 0.00 69 1014.3
20190217204507 82 173 10.0 0.0 0.00 0.00 0.00 68 1014.3
20190217203021 82 171 4.0 0.0 0.00 0.00 0.00 67 1014.3
20190217201508 82 194 5.0 0.0 0.00 0.00 0.00 67 1014.2
20190217200001 83 161 7.0 0.0 0.00 0.00 0.00 66 1014.2
20190217194752 83 238 5.0 0.0 0.00 0.00 0.00 69 1014.3
20190217193212 83 165 5.0 0.0 0.00 0.00 0.00 67 1014.4
20190217191651 82 168 7.0 0.0 0.00 0.00 0.00 68 1014.4
20190217190204 84 177 5.0 0.0 0.00 0.00 0.00 65 1014.5
20190217184705 83 184 6.0 0.0 0.00 0.00 0.00 68 1014.6
20190217183259 83 143 6.0 0.0 0.00 0.00 0.00 68 1014.8
20190217181647 83 173 4.0 0.0 0.00 0.00 0.00 69 1014.9
20190217180126 82 174 5.0 0.0 0.00 0.00 0.00 70 1015.2
20190217174718 82 171 5.0 0.0 0.00 0.00 0.00 70 1015.3
20190217173148 83 161 7.0 0.0 0.00 0.00 0.00 68 1015.4
20190217171658 82 153 3.0 0.0 0.00 0.00 0.00 69 1015.7
20190217170159 83 154 4.0 0.0 0.00 0.00 0.00 66 1015.9
20190217164656 83 159 5.0 0.0 0.00 0.00 0.00 65 1016.0
20190217163146 83 219 3.0 0.0 0.00 0.00 0.00 63 1016.2
20190217161702 82 175 3.0 0.0 0.00 0.00 0.00 68 1016.4
20190217160139 83 230 5.0 0.0 0.00 0.00 0.00 67 1016.6
20190217154605 83 219 4.0 0.0 0.00 0.00 0.00 65 1016.6
20190217153106 82 198 4.0 0.0 0.00 0.00 0.00 68 1016.6
20190217151641 82 166 3.0 0.0 0.00 0.00 0.00 70 1016.6
20190217150141 81 165 3.0 0.0 0.00 0.00 0.00 67 1016.6
20190217144613 80 181 2.0 0.0 0.00 0.00 0.00 74 1016.6
20190217143106 79 191 2.0 0.0 0.00 0.00 0.00 76 1016.7
20190217141605 78 210 1.0 0.0 0.00 0.00 0.00 83 1016.8
20190217140133 76 225 1.0 0.0 0.00 0.00 0.00 86 1016.6
20190217134533 75 216 1.0 0.0 0.00 0.00 0.00 90 1016.6
20190217133037 73 106 0.0 0.0 0.00 0.00 0.00 94 1016.5
20190217131530 71 167 1.0 0.0 0.00 0.00 0.00 96 1016.4
20190217130029 69 139 0.0 0.0 0.00 0.00 0.00 97 1016.3
20190217124524 68 139 0.0 0.0 0.00 0.00 0.00 97 1016.1
20190217123037 67 182 0.0 0.0 0.00 0.00 0.00 97 1016.0
20190217121521 67 182 0.0 0.0 0.00 0.00 0.00 97 1015.8
20190217120023 66 254 0.0 0.0 0.00 0.00 0.00 97 1015.5
20190217114510 67 254 0.0 0.0 0.00 0.00 0.00 96 1015.2
20190217113011 66 254 0.0 0.0 0.00 0.00 0.00 96 1015.0
20190217111504 66 254 0.0 0.0 0.00 0.00 0.00 96 1014.8
20190217104651 66 254 0.0 0.0 0.00 0.00 0.00 97 1014.4
20190217103216 66 254 0.0 0.0 0.00 0.00 0.00 96 1014.2
20190217101704 66 254 0.0 0.0 0.00 0.00 0.00 96 1014.0
20190217100150 66 254 0.0 0.0 0.00 0.00 0.00 96 1013.8
20190217094718 66 254 0.0 0.0 0.00 0.00 0.00 96 1013.6
20190217093123 66 254 0.0 0.0 0.00 0.00 0.00 96 1013.6
20190217091636 66 254 0.0 0.0 0.00 0.00 0.00 96 1013.5
20190217090203 66 254 0.0 0.0 0.00 0.00 0.00 96 1013.4
20190217084649 67 254 0.0 0.0 0.00 0.00 0.00 96 1013.3
20190217083150 67 254 0.0 0.0 0.00 0.00 0.00 95 1013.3
20190217081641 67 254 0.0 0.0 0.00 0.00 0.00 95 1013.3
20190217080123 67 254 0.0 0.0 0.00 0.00 0.00 95 1013.2
20190217074643 67 254 0.0 0.0 0.00 0.00 0.00 95 1013.2
20190217073111 67 254 0.0 0.0 0.00 0.00 0.00 95 1013.2
20190217071627 67 254 0.0 0.0 0.00 0.00 0.00 94 1013.4
20190217070110 67 254 0.0 0.0 0.00 0.00 0.00 95 1013.5
20190217064636 67 254 0.0 0.0 0.00 0.00 0.00 95 1013.4
20190217063133 68 254 0.0 0.0 0.00 0.00 0.00 95 1013.5
20190217061604 68 254 0.0 0.0 0.00 0.00 0.00 94 1013.6
20190217060141 68 254 0.0 0.0 0.00 0.00 0.00 93 1013.7
20190217054614 69 254 0.0 0.0 0.00 0.00 0.00 92 1013.7
20190217053103 70 254 0.0 0.0 0.00 0.00 0.00 89 1013.7
20190217051605 70 254 0.0 0.0 0.00 0.00 0.00 89 1013.7
20190217050058 70 254 0.0 0.0 0.00 0.00 0.00 89 1013.8
20190217044621 70 254 0.0 0.0 0.00 0.00 0.00 88 1013.8
20190217043034 71 254 0.0 0.0 0.00 0.00 0.00 87 1013.9
20190217041637 72 254 0.0 0.0 0.00 0.00 0.00 87 1014.1
20190217040047 72 254 0.0 0.0 0.00 0.00 0.00 87 1014.1
20190217034539 73 254 0.0 0.0 0.00 0.00 0.00 87 1014.0
20190217033055 73 254 0.0 0.0 0.00 0.00 0.00 86 1013.9
20190217031553 74 254 0.0 0.0 0.00 0.00 0.00 86 1013.8
20190217030115 74 254 0.0 0.0 0.00 0.00 0.00 86 1013.8
20190217024550 74 254 0.0 0.0 0.00 0.00 0.00 85 1013.5
20190217023048 74 254 0.0 0.0 0.00 0.00 0.00 85 1013.3
20190217021653 74 254 0.0 0.0 0.00 0.00 0.00 84 1013.2
20190217020055 74 254 0.0 0.0 0.00 0.00 0.00 83 1013.0
20190217014541 74 254 0.0 0.0 0.00 0.00 0.00 83 1012.7
20190217013037 75 268 0.0 0.0 0.00 0.00 0.00 82 1012.6
20190217011551 76 232 0.0 0.0 0.00 0.00 0.00 79 1012.5